LIFELN1 EHHA-ZZZZ

Flight info

Callsign LIFELN1
Flight time N/A
Altitude 1500
Route SCRAMBLES
Aircraft EC35/L-V/N

Departure

Time 2026-05-07 17:04
Airport Amsterdam Heliport (EHHA)

Arrival

Time N/A
Airport ZZZZ
Time Latitude Longitude Altitude Speed Heading
2026-05-07 17:00 52.41463 4.80484 6 ft 0 kts 285°
2026-05-07 17:00 52.41463 4.80483 6 ft 0 kts 288°
2026-05-07 17:00 52.41473 4.80479 12 ft 7 kts 309°
2026-05-07 17:01 52.41597 4.80498 34 ft 33 kts 91°
2026-05-07 17:01 52.41861 4.80387 65 ft 41 kts 53°
2026-05-07 17:01 52.42127 4.80114 130 ft 60 kts 26°
2026-05-07 17:01 52.42121 4.79565 179 ft 34 kts 286°
2026-05-07 17:02 52.42213 4.79107 315 ft 72 kts 308°
2026-05-07 17:02 52.42646 4.78480 312 ft 95 kts 323°
2026-05-07 17:02 52.43253 4.77810 327 ft 97 kts 328°
2026-05-07 17:02 52.43870 4.77261 323 ft 111 kts 331°
2026-05-07 17:03 52.44600 4.76706 312 ft 119 kts 335°
2026-05-07 17:03 52.45381 4.76200 296 ft 123 kts 338°
2026-05-07 17:03 52.46205 4.75749 278 ft 125 kts 341°
2026-05-07 17:03 52.47033 4.75374 314 ft 122 kts 345°
2026-05-07 17:04 52.47840 4.75036 388 ft 117 kts 342°
2026-05-07 17:04 52.48508 4.74634 469 ft 114 kts 336°
2026-05-07 17:04 52.49242 4.74169 547 ft 115 kts 340°
2026-05-07 17:04 52.49994 4.73809 615 ft 114 kts 345°
2026-05-07 17:05 52.50742 4.73442 688 ft 113 kts 340°
2026-05-07 17:05 52.51482 4.73020 769 ft 112 kts 339°
2026-05-07 17:05 52.52221 4.72604 786 ft 118 kts 338°
2026-05-07 17:05 52.52993 4.71994 703 ft 124 kts 330°
2026-05-07 17:06 52.53743 4.71275 672 ft 126 kts 326°
2026-05-07 17:06 52.54464 4.70457 624 ft 127 kts 322°
2026-05-07 17:06 52.55141 4.69555 580 ft 127 kts 317°
2026-05-07 17:06 52.55804 4.68587 525 ft 128 kts 317°
2026-05-07 17:07 52.56489 4.67680 526 ft 124 kts 323°
2026-05-07 17:07 52.57218 4.66956 566 ft 121 kts 332°
2026-05-07 17:07 52.57968 4.66338 581 ft 120 kts 332°
2026-05-07 17:07 52.58712 4.65701 592 ft 121 kts 330°
2026-05-07 17:08 52.59454 4.65039 605 ft 121 kts 330°
2026-05-07 17:08 52.60190 4.64357 607 ft 122 kts 329°
2026-05-07 17:08 52.60921 4.63652 601 ft 122 kts 328°
2026-05-07 17:08 52.61506 4.62694 416 ft 119 kts 287°
2026-05-07 17:09 52.61773 4.61775 334 ft 61 kts 34°
2026-05-07 17:09 52.62036 4.61715 188 ft 16 kts 107°
2026-05-07 17:09 52.61918 4.61845 98 ft 22 kts 113°
2026-05-07 17:09 52.61857 4.61987 21 ft 3 kts 111°
2026-05-07 17:10 52.61779 4.62130 46 ft 392 kts 104°
2026-05-07 17:10 52.61757 4.62079 29 ft 0 kts 13°
2026-05-07 17:22 52.61758 4.62074 29 ft 0 kts
2026-05-07 17:22 52.61758 4.62069 31 ft 2 kts 68°
2026-05-07 17:22 52.61758 4.62110 60 ft 10 kts 71°
2026-05-07 17:22 52.61803 4.62477 146 ft 59 kts 58°
2026-05-07 17:23 52.61872 4.63385 127 ft 98 kts 82°
2026-05-07 17:23 52.61685 4.64445 274 ft 102 kts 98°
2026-05-07 17:23 52.61471 4.65656 234 ft 117 kts 102°
2026-05-07 17:23 52.61193 4.66897 317 ft 115 kts 105°
2026-05-07 17:24 52.60882 4.68102 380 ft 115 kts 114°
2026-05-07 17:24 52.60622 4.68877 420 ft 114 kts 117°
2026-05-07 17:24 52.60264 4.69941 413 ft 117 kts 118°
2026-05-07 17:24 52.59876 4.71016 381 ft 120 kts 122°
2026-05-07 17:25 52.59429 4.72133 379 ft 118 kts 125°
2026-05-07 17:25 52.58982 4.73175 449 ft 112 kts 128°
2026-05-07 17:25 52.58531 4.74157 531 ft 107 kts 130°
2026-05-07 17:25 52.58068 4.75087 626 ft 103 kts 132°
2026-05-07 17:26 52.57606 4.75998 689 ft 105 kts 129°
2026-05-07 17:26 52.57228 4.76871 717 ft 108 kts 126°
2026-05-07 17:26 52.56790 4.77885 745 ft 110 kts 128°
2026-05-07 17:26 52.56324 4.78892 767 ft 111 kts 129°
2026-05-07 17:27 52.55835 4.79885 782 ft 113 kts 131°
2026-05-07 17:27 52.55417 4.80688 786 ft 113 kts 132°
2026-05-07 17:27 52.54889 4.81654 785 ft 114 kts 134°
2026-05-07 17:27 52.54360 4.82569 784 ft 114 kts 135°
2026-05-07 17:28 52.53805 4.83480 780 ft 115 kts 137°
2026-05-07 17:28 52.53234 4.84371 782 ft 115 kts 138°
2026-05-07 17:28 52.52665 4.85293 775 ft 116 kts 130°
2026-05-07 17:28 52.52237 4.86414 772 ft 116 kts 118°
2026-05-07 17:29 52.51870 4.87599 767 ft 117 kts 119°
2026-05-07 17:29 52.51493 4.88736 762 ft 117 kts 120°
2026-05-07 17:29 52.51117 4.89923 732 ft 119 kts 117°
2026-05-07 17:29 52.50741 4.91153 667 ft 122 kts 123°
2026-05-07 17:30 52.50211 4.92228 643 ft 119 kts 131°
2026-05-07 17:30 52.49680 4.93237 154 ft 107 kts 113°
2026-05-07 17:30 52.49549 4.93648 184 ft 7 kts
2026-05-07 17:30 52.49555 4.93611 69 ft 6 kts
2026-05-07 17:31 52.49610 4.93640 10 ft 9 kts 298°
2026-05-07 17:31 52.49616 4.93637 1 ft 0 kts 284°
2026-05-07 17:37 52.49617 4.93637 4 ft 1 kts 286°
2026-05-07 17:37 52.49619 4.93646 90 ft 3 kts 230°
2026-05-07 17:37 52.49527 4.93504 321 ft 42 kts 228°
2026-05-07 17:37 52.49160 4.92896 288 ft 97 kts 224°
2026-05-07 17:38 52.48832 4.92151 743 ft 63 kts 236°
2026-05-07 17:38 52.48591 4.91591 675 ft 97 kts 233°
2026-05-07 17:38 52.48159 4.90880 927 ft 90 kts 218°
2026-05-07 17:38 52.47616 4.90193 941 ft 101 kts 213°
2026-05-07 17:39 52.46978 4.89566 838 ft 118 kts 208°
2026-05-07 17:39 52.46227 4.89054 867 ft 113 kts 196°
2026-05-07 17:39 52.45468 4.88674 840 ft 116 kts 198°
2026-05-07 17:39 52.44698 4.88362 872 ft 114 kts 194°
2026-05-07 17:40 52.43935 4.88002 825 ft 119 kts 198°
2026-05-07 17:40 52.43143 4.87547 752 ft 122 kts 197°
2026-05-07 17:40 52.42369 4.86990 734 ft 117 kts 205°
2026-05-07 17:40 52.41646 4.86534 848 ft 110 kts 194°
2026-05-07 17:41 52.40884 4.86599 869 ft 111 kts 165°
2026-05-07 17:41 52.40147 4.87067 796 ft 121 kts 160°
2026-05-07 17:41 52.39418 4.87543 767 ft 109 kts 156°
2026-05-07 17:41 52.38976 4.88412 400 ft 96 kts 60°
2026-05-07 17:42 52.39362 4.88448 301 ft 31 kts 317°
2026-05-07 17:42 52.39275 4.88206 166 ft 33 kts 307°
2026-05-07 17:42 52.39044 4.88166 104 ft 35 kts 306°
2026-05-07 17:42 52.38819 4.88279 127 ft 18 kts 308°
2026-05-07 17:43 52.38823 4.88123 153 ft 31 kts 311°
2026-05-07 17:43 52.38855 4.87713 210 ft 11 kts 173°
2026-05-07 17:43 52.38842 4.87745 92 ft 8 kts 149°
2026-05-07 17:43 52.38821 4.87773 7 ft 0 kts 358°
2026-05-07 17:44 52.38821 4.87765 6 ft 0 kts
2026-05-07 17:49 52.38813 4.87762 71 ft 6 kts
2026-05-07 17:49 52.38808 4.87735 186 ft 7 kts 346°
2026-05-07 17:49 52.38866 4.87576 392 ft 42 kts 340°
2026-05-07 17:49 52.39219 4.87223 303 ft 49 kts 345°
2026-05-07 17:50 52.39507 4.87030 741 ft 80 kts 329°
2026-05-07 17:50 52.40037 4.86324 740 ft 116 kts 314°
2026-05-07 17:50 52.40663 4.85329 676 ft 134 kts 311°
2026-05-07 17:50 52.41369 4.84232 540 ft 144 kts 315°
2026-05-07 17:51 52.42014 4.83053 597 ft 134 kts 297°
2026-05-07 17:51 52.42214 4.81601 483 ft 135 kts 267°
2026-05-07 17:51 52.42514 4.80443 631 ft 101 kts 10°
2026-05-07 17:51 52.42606 4.81115 654 ft 96 kts 143°
2026-05-07 17:52 52.42010 4.81585 845 ft 88 kts 148°
2026-05-07 17:52 52.41444 4.82163 867 ft 97 kts 166°
2026-05-07 17:52 52.40935 4.81779 848 ft 90 kts 257°
2026-05-07 17:52 52.41060 4.80664 259 ft 109 kts 328°
2026-05-07 17:53 52.41552 4.80388 122 ft 29 kts 159°
2026-05-07 17:53 52.41503 4.80477 15 ft 6 kts 143°
2026-05-07 17:53 52.41500 4.80475 9 ft 0 kts 137°